Wind_Speed
54 55 57 59 61 62 63 63 64 65 65 65 66 67 68 68 68 67 67 67 66 67 66 67 67 68 69 70 71 71 72 73 74 71 70 70 69 69 67 65 62 60 58
52 53 55 57 58 59 60 62 63 64 64 65 66 67 68 67 67 66 66 66 66 66 66 67 66 67 68 69 70 70 71 72 73 72 70 68 66 65 64 61 59 58 56
50 52 53 54 56 57 59 60 62 63 65 65 66 66 66 66 66 65 65 65 65 65 65 65 65 66 67 68 69 69 70 71 71 72 69 66 63 62 61 59 57 56 54
49 50 51 53 55 57 59 60 61 63 64 64 64 65 64 64 64 64 64 64 63 63 63 63 64 65 66 67 67 68 69 69 69 70 68 65 62 61 60 58 56 54 52
49 50 52 54 56 57 59 60 60 61 61 61 61 62 62 62 62 62 62 61 61 61 61 62 63 64 65 66 66 66 67 67 67 68 66 64 61 60 58 57 55 52 49
51 52 53 54 55 56 56 57 57 57 57 57 59 60 60 59 59 59 59 59 59 60 60 61 62 63 64 64 65 65 65 65 66 66 64 62 60 58 57 55 54 51 47
52 52 53 53 53 54 54 55 55 55 56 57 57 57 56 56 57 58 58 58 57 57 59 59 60 61 62 62 63 62 61 62 63 63 61 60 58 56 55 53 51 49 46
51 51 51 51 52 53 53 53 53 54 55 55 55 55 56 56 57 57 57 57 56 57 57 58 59 60 60 61 60 59 58 58 59 59 58 57 55 54 53 52 49 46 42
50 50 50 51 51 51 52 52 53 54 54 55 55 55 55 56 56 57 57 56 56 56 57 57 57 58 58 59 59 57 56 56 56 55 54 54 53 51 51 50 47 44 40
49 49 49 50 51 51 52 53 53 54 55 55 56 56 56 56 56 57 56 56 56 55 56 55 56 57 57 57 57 55 54 54 53 52 51 50 49 48 48 47 45 41 39
49 49 50 51 51 52 52 52 54 55 56 57 57 57 57 57 57 56 56 55 55 54 54 54 55 55 55 55 54 53 53 52 51 49 48 47 46 45 45 43 41 39 36
49 50 50 51 51 52 53 54 55 56 57 57 58 57 57 57 56 55 55 54 53 53 52 53 53 53 53 53 52 51 50 50 48 47 46 44 43 43 42 40 37 36 34
50 50 50 52 53 54 55 56 56 57 57 58 58 57 57 56 54 53 53 52 52 51 50 51 51 50 50 50 49 48 48 47 45 44 43 41 40 40 39 36 33 33 31
50 51 52 53 54 55 56 56 56 57 57 58 58 57 56 54 52 52 51 50 49 49 48 48 48 47 47 47 46 46 45 44 43 42 40 38 37 36 36 33 31 30 28
51 52 53 53 54 55 55 56 57 57 58 58 57 55 54 53 52 51 50 49 48 46 46 45 45 44 44 44 44 43 43 42 41 40 38 35 34 34 33 31 29 27 24
52 52 53 54 54 55 56 56 57 57 57 56 56 54 53 52 51 49 47 46 44 43 43 42 42 42 41 41 41 41 41 40 39 38 35 33 32 31 30 28 27 25 22
53 54 54 55 55 55 55 55 55 56 56 55 55 53 51 50 48 45 43 41 40 40 39 39 40 39 39 38 38 38 38 38 36 35 33 31 30 29 27 26 24 22 20
53 53 54 55 54 54 54 55 55 56 55 54 53 51 49 47 44 41 39 38 37 37 37 37 37 36 36 36 36 36 36 35 34 32 30 29 29 28 26 25 23 21 17
52 52 53 52 52 53 54 55 55 55 54 53 51 48 46 43 40 37 36 35 34 34 34 33 33 33 33 33 34 34 34 33 31 30 28 28 27 26 23 22 21 18 15
50 51 51 50 51 52 53 53 54 53 52 49 47 44 41 38 36 34 33 32 32 31 30 30 30 30 31 31 32 32 32 30 29 27 26 26 25 23 21 20 18 15 12
49 49 49 49 50 51 51 51 51 50 48 45 42 39 37 35 33 30 29 29 28 27 27 27 27 28 28 29 29 30 29 28 27 25 24 24 22 20 18 17 15 12 10
47 47 47 48 49 49 49 48 48 46 43 42 38 35 33 30 27 25 25 24 23 24 24 24 25 25 26 26 27 27 27 26 25 23 23 22 20 18 16 14 12 10 8
45 45 46 46 47 47 46 46 44 42 40 37 34 30 28 25 24 23 21 20 20 20 21 22 22 23 24 25 25 26 25 24 23 22 22 20 18 16 13 12 10 8 7
43 43 44 44 45 45 44 43 41 38 36 32 29 26 24 22 20 19 18 17 17 18 19 20 20 21 22 23 24 24 24 23 22 21 20 18 16 13 11 9 7 6 5
41 41 42 43 43 42 40 39 36 33 31 27 25 22 20 18 17 16 15 15 15 16 17 18 19 20 21 22 23 23 23 22 21 20 18 16 14 11 8 6 5 5 4
39 40 40 40 39 38 37 35 32 29 26 23 21 18 17 15 14 13 13 13 13 14 16 17 18 19 20 21 22 22 22 22 21 19 17 14 12 8 5 4 4 4 3
Wind_Direction
286 286 286 286 286 287 288 289 290 291 292 294 295 297 298 299 300 301 302 302 301 302 303 303 304 304 305 306 307 308 309 311 313 314 314 313 312 312 311 309 309 307 306
288 287 286 286 287 288 289 290 290 291 293 294 296 297 298 299 299 300 300 300 300 301 302 302 302 303 305 306 307 309 310 312 313 315 316 315 314 313 312 310 309 308 307
291 290 289 289 289 289 290 290 291 292 294 295 296 296 297 297 298 298 298 298 299 300 301 302 302 303 305 307 308 309 311 312 313 315 316 316 315 314 312 312 311 309 307
295 294 293 292 292 292 292 292 292 293 294 294 295 296 296 296 296 296 297 298 298 299 300 301 302 304 305 307 308 309 311 312 314 315 316 317 316 316 314 314 313 311 308
297 296 295 295 294 293 293 293 293 294 294 295 296 296 296 296 296 296 296 297 298 299 299 300 302 304 305 307 308 310 311 313 314 315 317 318 318 318 317 316 315 313 310
297 296 296 296 295 294 294 294 294 294 294 295 297 297 297 297 297 296 297 298 299 299 300 301 302 304 305 307 308 310 312 314 315 316 318 319 319 318 318 318 317 315 313
297 297 297 296 296 296 295 295 295 295 295 296 297 298 298 298 297 297 298 298 298 299 300 301 302 304 305 307 309 311 312 314 316 317 319 319 319 319 319 319 318 317 315
298 298 298 297 297 297 297 297 296 296 296 297 297 298 298 298 297 298 298 297 298 298 299 300 302 304 305 307 309 311 313 315 316 317 318 319 319 319 320 320 320 319 317
299 299 299 299 299 299 298 298 297 297 298 298 298 298 298 297 298 298 297 298 298 298 298 300 302 304 305 307 309 312 314 315 316 318 319 319 320 320 321 322 322 320 320
300 299 300 300 300 299 298 298 298 298 299 299 299 298 298 298 297 298 297 297 297 297 297 299 301 303 305 307 310 313 314 316 318 319 319 319 320 321 322 322 322 322 322
300 300 300 300 300 300 300 299 298 299 300 300 300 299 298 298 297 297 296 296 295 295 297 298 301 303 305 307 310 313 315 317 319 320 321 320 321 322 323 323 322 324 325
300 300 299 299 300 300 300 300 300 300 300 301 301 300 299 299 298 297 296 295 294 295 296 297 300 302 305 308 311 314 316 318 320 321 322 322 322 323 324 324 324 325 327
299 299 299 299 300 300 301 301 301 301 301 301 302 301 301 299 298 297 297 296 295 295 296 297 300 302 305 308 312 314 317 319 321 322 322 323 323 324 325 326 325 325 327
299 299 299 300 301 301 302 302 302 302 302 303 303 302 301 300 298 298 298 297 296 295 295 297 300 302 305 309 312 315 318 320 322 323 323 324 324 325 326 326 326 326 327
300 300 301 301 302 303 303 303 304 303 304 304 304 303 303 301 299 298 297 296 295 294 295 297 299 302 306 310 313 316 319 321 322 324 324 324 325 325 326 327 327 328 327
300 300 302 303 303 303 304 304 305 305 305 305 304 304 303 302 300 298 296 295 294 294 295 297 299 303 307 311 314 317 320 322 323 324 324 324 324 324 325 326 327 328 327
301 301 302 303 304 304 305 306 306 306 307 306 306 305 303 302 301 299 296 295 293 293 295 297 300 304 308 311 315 318 321 322 323 324 324 324 324 323 323 324 325 325 324
302 303 304 305 305 306 307 308 308 308 308 308 307 305 304 303 300 298 296 295 293 293 294 297 300 305 309 313 316 319 322 323 324 324 324 324 325 324 322 323 323 323 320
304 304 305 306 306 307 308 309 310 310 310 309 307 306 305 303 299 296 295 294 293 293 294 297 301 306 311 314 318 321 323 324 324 325 325 325 326 326 324 325 324 321 317
305 305 306 307 308 309 310 311 312 312 312 311 309 308 306 303 300 297 294 293 292 292 295 299 304 309 313 316 320 323 324 326 326 326 326 327 327 327 326 326 326 321 316
306 307 308 309 310 311 312 313 313 313 314 314 312 310 308 305 302 298 294 293 292 293 296 301 306 311 315 318 323 326 327 328 329 329 329 328 328 326 326 328 328 324 315
309 309 310 311 312 313 314 315 315 315 315 314 312 310 310 309 305 300 297 294 293 294 299 305 310 314 318 322 326 329 330 331 331 331 331 331 329 327 325 326 327 324 319
311 311 312 313 314 315 315 316 316 316 315 314 313 311 311 308 306 303 298 295 297 300 305 310 314 318 323 327 330 332 334 334 333 333 333 332 330 328 325 324 323 321 317
313 314 314 315 316 317 317 318 317 315 315 314 313 312 311 308 305 303 301 301 303 307 312 316 320 324 328 332 334 336 337 337 337 336 335 333 331 329 327 325 323 321 320
315 316 317 318 319 319 320 320 319 317 316 315 315 314 313 311 307 305 306 307 311 315 320 324 328 331 334 336 338 339 340 340 340 340 339 337 334 331 329 326 324 319 317
317 318 320 321 321 322 323 322 321 319 318 317 315 314 313 312 310 310 313 316 322 326 329 333 335 337 339 340 342 343 344 344 344 344 343 341 340 337 335 331 328 323 321
Height
5689 5684 5678 5673 5666 5660 5654 5648 5642 5635 5629 5623 5617 5610 5604 5597 5589 5582 5575 5566 5558 5549 5540 5530 5521 5510 5500 5490 5479 5468 5457 5445 5436 5428 5413 5400 5385 5370 5357 5344 5333 5323 5314
5674 5669 5663 5657 5651 5645 5639 5633 5626 5620 5614 5608 5601 5594 5588 5581 5573 5566 5558 5550 5541 5533 5523 5514 5504 5494 5484 5474 5463 5452 5440 5428 5417 5408 5397 5383 5369 5355 5342 5330 5319 5308 5298
5659 5653 5648 5642 5635 5630 5624 5618 5611 5605 5598 5592 5585 5578 5571 5564 5557 5549 5541 5533 5525 5516 5507 5498 5488 5479 5469 5458 5447 5436 5425 5413 5400 5389 5380 5368 5355 5341 5327 5317 5305 5294 5284
5644 5638 5632 5626 5620 5614 5608 5602 5596 5589 5583 5576 5569 5562 5555 5548 5540 5533 5525 5517 5509 5501 5491 5482 5473 5464 5454 5443 5432 5421 5409 5398 5386 5374 5363 5352 5340 5326 5313 5302 5292 5281 5270
5630 5624 5618 5612 5605 5599 5592 5586 5580 5573 5566 5559 5552 5546 5538 5531 5524 5516 5509 5501 5493 5485 5476 5467 5458 5449 5439 5428 5418 5407 5395 5383 5372 5359 5348 5336 5324 5312 5299 5287 5277 5267 5258
5615 5609 5603 5596 5590 5583 5576 5570 5564 5557 5551 5544 5537 5529 5522 5515 5508 5500 5493 5485 5477 5469 5461 5452 5443 5434 5424 5414 5403 5392 5381 5369 5357 5345 5334 5322 5311 5299 5287 5275 5263 5254 5246
5600 5594 5588 5581 5575 5568 5562 5555 5549 5542 5535 5529 5521 5514 5507 5500 5492 5484 5477 5470 5462 5455 5446 5438 5429 5420 5410 5401 5390 5379 5368 5355 5344 5332 5321 5310 5298 5288 5276 5266 5254 5242 5233
5586 5580 5574 5567 5560 5553 5547 5540 5534 5527 5520 5513 5506 5499 5492 5485 5477 5469 5461 5454 5448 5440 5432 5424 5416 5407 5397 5387 5378 5368 5356 5345 5333 5322 5310 5299 5288 5276 5265 5254 5243 5234 5224
5572 5566 5559 5553 5546 5539 5532 5526 5519 5512 5505 5498 5491 5484 5477 5470 5462 5454 5446 5440 5433 5426 5418 5410 5402 5394 5384 5374 5366 5357 5346 5335 5323 5311 5300 5288 5277 5266 5255 5244 5234 5224 5216
5558 5552 5545 5538 5532 5525 5518 5511 5504 5498 5491 5483 5476 5469 5462 5455 5447 5439 5431 5425 5419 5412 5404 5397 5389 5380 5372 5362 5353 5344 5334 5324 5313 5302 5291 5280 5269 5258 5247 5236 5226 5216 5208
5544 5538 5531 5524 5517 5510 5503 5496 5489 5483 5476 5468 5461 5454 5446 5439 5431 5424 5417 5410 5404 5397 5390 5383 5376 5368 5359 5350 5341 5332 5323 5313 5303 5293 5282 5272 5261 5251 5241 5230 5220 5210 5202
5531 5524 5517 5510 5503 5496 5489 5482 5474 5467 5460 5452 5445 5438 5430 5423 5416 5409 5402 5395 5389 5383 5376 5369 5363 5355 5347 5339 5330 5322 5312 5303 5293 5283 5273 5263 5254 5244 5234 5224 5215 5206 5198
5517 5510 5503 5496 5489 5482 5475 5467 5460 5452 5444 5437 5430 5422 5415 5407 5400 5393 5387 5381 5374 5369 5363 5357 5350 5343 5336 5328 5320 5311 5303 5293 5284 5275 5265 5256 5247 5238 5229 5220 5211 5203 5195
5503 5496 5489 5482 5475 5467 5460 5452 5444 5437 5429 5421 5414 5406 5399 5392 5385 5379 5373 5367 5361 5356 5350 5345 5338 5332 5325 5318 5310 5302 5293 5284 5276 5267 5258 5249 5240 5232 5224 5215 5208 5200 5193
5489 5482 5475 5468 5461 5453 5445 5437 5430 5422 5413 5406 5398 5391 5384 5377 5371 5365 5359 5353 5348 5343 5338 5333 5327 5321 5315 5308 5301 5293 5284 5276 5268 5259 5251 5243 5235 5227 5219 5211 5204 5198 5191
5475 5468 5461 5454 5446 5439 5432 5424 5415 5407 5399 5391 5383 5376 5369 5363 5356 5351 5345 5340 5335 5331 5327 5322 5317 5311 5305 5299 5292 5284 5276 5268 5260 5252 5244 5237 5229 5222 5215 5208 5202 5196 5190
5460 5454 5447 5439 5432 5425 5417 5409 5402 5394 5385 5376 5369 5361 5355 5348 5342 5337 5332 5328 5324 5320 5317 5312 5307 5302 5296 5290 5284 5276 5269 5261 5253 5246 5238 5231 5224 5218 5211 5205 5199 5194 5188
5446 5439 5432 5425 5418 5410 5403 5395 5387 5379 5371 5362 5355 5347 5341 5335 5330 5325 5321 5317 5314 5311 5307 5303 5299 5294 5288 5282 5276 5269 5262 5254 5247 5240 5233 5226 5220 5213 5207 5202 5196 5192 5187
5432 5425 5419 5411 5404 5397 5389 5381 5373 5365 5356 5348 5341 5334 5327 5322 5318 5314 5310 5307 5305 5302 5298 5295 5290 5286 5281 5275 5269 5262 5255 5248 5241 5234 5228 5221 5215 5209 5203 5198 5194 5189 5186
5419 5412 5405 5399 5392 5384 5376 5368 5360 5351 5343 5335 5328 5321 5316 5311 5307 5303 5301 5298 5296 5293 5290 5287 5283 5278 5274 5268 5262 5255 5249 5242 5236 5229 5223 5217 5211 5205 5200 5196 5191 5187 5184
5407 5400 5393 5386 5379 5371 5363 5355 5347 5339 5331 5324 5317 5311 5306 5301 5297 5294 5291 5289 5287 5285 5283 5280 5276 5272 5267 5262 5256 5250 5243 5237 5231 5225 5219 5213 5207 5202 5197 5193 5189 5186 5183
5395 5388 5381 5374 5367 5359 5351 5343 5335 5327 5320 5313 5307 5302 5297 5293 5289 5286 5284 5282 5280 5279 5277 5274 5270 5266 5261 5256 5251 5245 5239 5233 5227 5221 5215 5210 5204 5200 5195 5192 5188 5185 5183
5383 5377 5370 5363 5355 5348 5340 5332 5325 5317 5311 5304 5299 5295 5290 5287 5284 5281 5279 5277 5275 5274 5272 5269 5265 5261 5257 5252 5246 5240 5235 5229 5223 5218 5212 5207 5202 5198 5194 5191 5188 5185 5183
5372 5366 5359 5352 5345 5337 5330 5322 5315 5308 5302 5297 5292 5288 5285 5282 5280 5277 5275 5273 5272 5270 5267 5264 5261 5257 5253 5248 5242 5237 5231 5226 5220 5215 5210 5205 5200 5196 5193 5190 5188 5185 5184
5363 5356 5349 5342 5335 5327 5320 5313 5306 5300 5295 5291 5287 5284 5281 5278 5276 5274 5272 5270 5269 5267 5264 5261 5258 5254 5249 5244 5239 5234 5229 5223 5218 5212 5207 5203 5198 5195 5192 5190 5188 5186 5184
5353 5347 5340 5333 5326 5318 5311 5305 5299 5294 5290 5286 5283 5281 5278 5276 5274 5272 5270 5268 5266 5264 5261 5258 5255 5251 5247 5242 5237 5232 5226 5221 5216 5211 5206 5201 5197 5194 5192 5190 5188 5186 5185